Powrót do katalogu

SYRACUSE 4B

AktywnyMilitariaGEO
NORAD 57214·PAYLOAD·🇫🇷 France

Wystrzelony Jul 5, 2023 z Guiana Space Centre

Loading…

TLE

ŚwieżeSource: Space-Track

Epoka: Sep 14, 2026, 00:53 UTC

1 57214U 23093B   26257.03725449  .00000000  00000-0  00000-0 0  9992
2 57214   0.0207 171.5296 0000247  93.2254  95.2422  1.00269450  7861

Śledź SYRACUSE 4B w czasie rzeczywistym z AllMySat

Download on the App Store